• In United Kingdom
  • List of Countries
  • For 7 days
  • Water Temperature
  • Satellite Maps
  • Weather Map
  • Weather Widgets
  • user-avatar
    Login

    Hourly Weather Keflavík

    Today, 23 May, Wednesday

    Time Temperature Precipitation Wind Pressure Humidity
    00:00 +4°C° 0.2 mm 12 mps 750 mmHg 79%
    01:00 +3°C° 0.2 mm 13 mps 750 mmHg 79%
    02:00 +3°C° 0.2 mm 13 mps 751 mmHg 77%
    03:00 +3°C° 0.2 mm 13 mps 751 mmHg 75%
    04:00 +3°C° 0 mm 13 mps 752 mmHg 73%
    05:00 +3°C° 0.1 mm 13 mps 753 mmHg 71%
    06:00 +4°C° 0.1 mm 13 mps 754 mmHg 69%
    07:00 +4°C° 0.1 mm 12 mps 755 mmHg 68%
    08:00 +4°C° 0.1 mm 12 mps 756 mmHg 67%
    09:00 +4°C° 0.1 mm 11 mps 756 mmHg 66%
    10:00 +5°C° 0.1 mm 10 mps 757 mmHg 65%
    11:00 +5°C° 0 mm 10 mps 757 mmHg 64%
    12:00 +5°C° 0 mm 9 mps 758 mmHg 64%
    13:00 +5°C° 0 mm 9 mps 758 mmHg 64%
    14:00 +5°C° 0.1 mm 8 mps 759 mmHg 65%
    15:00 +5°C° 0.1 mm 8 mps 759 mmHg 65%
    16:00 +5°C° 0.1 mm 7 mps 759 mmHg 65%
    17:00 +5°C° 0 mm 6 mps 759 mmHg 67%
    18:00 +6°C° 0 mm 5 mps 760 mmHg 68%
    19:00 +6°C° 0 mm 5 mps 760 mmHg 70%
    20:00 +5°C° 0 mm 4 mps 760 mmHg 73%
    21:00 +5°C° 0 mm 4 mps 760 mmHg 77%
    22:00 +4°C° 0 mm 3 mps 760 mmHg 80%
    23:00 +5°C° 0 mm 2 mps 759 mmHg 81%

    Tomorrow, 24 May, Thursday

    Time Temperature Precipitation Wind Pressure Humidity
    00:00 +5°C° 0 mm 2 mps 759 mmHg 82%
    01:00 +6°C° 0 mm 1 mps 759 mmHg 83%
    02:00 +6°C° 0.1 mm 1 mps 759 mmHg 82%
    03:00 +6°C° 0.1 mm 1 mps 759 mmHg 81%
    04:00 +6°C° 0.1 mm 1 mps 759 mmHg 80%
    05:00 +6°C° 0.1 mm 2 mps 759 mmHg 77%
    06:00 +6°C° 0.1 mm 2 mps 759 mmHg 73%
    07:00 +7°C° 0.1 mm 3 mps 759 mmHg 69%
    08:00 +6°C° 0.1 mm 4 mps 759 mmHg 69%
    09:00 +6°C° 0.1 mm 5 mps 759 mmHg 69%
    10:00 +5°C° 0.1 mm 6 mps 759 mmHg 69%
    11:00 +6°C° 0.1 mm 7 mps 760 mmHg 65%
    12:00 +6°C° 0.1 mm 7 mps 760 mmHg 61%
    13:00 +6°C° 0.1 mm 8 mps 760 mmHg 57%
    14:00 +5°C° 0 mm 8 mps 761 mmHg 58%
    15:00 +5°C° 0 mm 8 mps 761 mmHg 58%
    16:00 +5°C° 0 mm 8 mps 761 mmHg 58%
    17:00 +5°C° 0.1 mm 9 mps 762 mmHg 63%
    18:00 +3°C° 0.1 mm 9 mps 762 mmHg 67%
    19:00 +3°C° 0.1 mm 9 mps 762 mmHg 71%
    20:00 +3°C° 0.2 mm 10 mps 762 mmHg 73%
    21:00 +3°C° 0.2 mm 11 mps 761 mmHg 75%
    22:00 +2°C° 0.2 mm 12 mps 761 mmHg 78%
    23:00 +3°C° 0.5 mm 12 mps 761 mmHg 80%

    Day after tomorrow, 25 May, Friday

    Time Temperature Precipitation Wind Pressure Humidity
    00:00 +3°C° 0.5 mm 11 mps 760 mmHg 83%
    01:00 +3°C° 0.5 mm 11 mps 760 mmHg 86%
    02:00 +3°C° 0.1 mm 11 mps 760 mmHg 84%
    03:00 +3°C° 0.1 mm 11 mps 760 mmHg 83%
    04:00 +3°C° 0.1 mm 11 mps 760 mmHg 81%
    05:00 +3°C° 0 mm 10 mps 761 mmHg 80%
    06:00 +3°C° 0 mm 10 mps 761 mmHg 80%
    07:00 +3°C° 0 mm 9 mps 762 mmHg 80%
    08:00 +4°C° 0.1 mm 8 mps 762 mmHg 79%
    09:00 +5°C° 0.1 mm 7 mps 762 mmHg 78%
    10:00 +5°C° 0.1 mm 6 mps 763 mmHg 77%
    11:00 +5°C° 0.3 mm 7 mps 763 mmHg 81%
    12:00 +5°C° 0.3 mm 7 mps 763 mmHg 84%
    13:00 +6°C° 0.3 mm 8 mps 762 mmHg 88%
    14:00 +6°C° 0.9 mm 9 mps 762 mmHg 90%
    15:00 +5°C° 0.9 mm 10 mps 761 mmHg 92%
    16:00 +4°C° 0.9 mm 11 mps 761 mmHg 94%
    17:00 +5°C° 1.2 mm 12 mps 760 mmHg 93%
    18:00 +5°C° 1.2 mm 13 mps 759 mmHg 93%
    19:00 +5°C° 1.2 mm 14 mps 758 mmHg 93%
    20:00 +5°C° 1.3 mm 14 mps 758 mmHg 93%
    21:00 +5°C° 1.3 mm 15 mps 757 mmHg 92%
    22:00 +5°C° 1.3 mm 15 mps 757 mmHg 92%
    23:00 +5°C° 0.6 mm 15 mps 756 mmHg 93%

    26 May, Saturday

    Time Temperature Precipitation Wind Pressure Humidity
    00:00 +5°C° 0.6 mm 14 mps 756 mmHg 93%
    01:00 +5°C° 0.6 mm 13 mps 756 mmHg 94%
    02:00 +5°C° 0.2 mm 13 mps 756 mmHg 95%
    03:00 +5°C° 0.2 mm 12 mps 756 mmHg 95%
    04:00 +6°C° 0.2 mm 11 mps 756 mmHg 95%
    05:00 +6°C° 1.4 mm 11 mps 756 mmHg 96%
    06:00 +6°C° 1.4 mm 10 mps 756 mmHg 96%
    07:00 +6°C° 1.4 mm 10 mps 755 mmHg 96%
    08:00 +7°C° 0.4 mm 9 mps 756 mmHg 96%
    09:00 +7°C° 0.4 mm 9 mps 756 mmHg 96%
    10:00 +7°C° 0.4 mm 8 mps 756 mmHg 96%
    11:00 +7°C° 0.7 mm 8 mps 756 mmHg 96%
    12:00 +7°C° 0.7 mm 9 mps 757 mmHg 96%
    13:00 +7°C° 0.7 mm 9 mps 757 mmHg 96%
    14:00 +7°C° 1.8 mm 10 mps 757 mmHg 96%
    15:00 +8°C° 1.8 mm 11 mps 757 mmHg 96%
    16:00 +8°C° 1.8 mm 12 mps 757 mmHg 96%
    17:00 +8°C° 1.1 mm 12 mps 757 mmHg 96%
    18:00 +8°C° 1.1 mm 12 mps 757 mmHg 96%
    19:00 +8°C° 1.1 mm 12 mps 758 mmHg 96%
    20:00 +8°C° 0.4 mm 11 mps 758 mmHg 96%
    21:00 +7°C° 0.4 mm 11 mps 758 mmHg 97%
    22:00 +7°C° 0.4 mm 10 mps 759 mmHg 97%
    23:00 +7°C° 0.4 mm 9 mps 759 mmHg 97%

    27 May, Sunday

    Time Temperature Precipitation Wind Pressure Humidity
    00:00 +7°C° 0.4 mm 8 mps 760 mmHg 97%
    01:00 +8°C° 0.4 mm 7 mps 760 mmHg 97%
    02:00 +8°C° 0.5 mm 7 mps 760 mmHg 97%
    03:00 +8°C° 0.5 mm 7 mps 760 mmHg 97%
    04:00 +8°C° 0.5 mm 6 mps 761 mmHg 97%
    05:00 +8°C° 0.7 mm 7 mps 761 mmHg 97%
    06:00 +7°C° 0.7 mm 8 mps 760 mmHg 97%
    07:00 +7°C° 0.7 mm 8 mps 760 mmHg 97%
    08:00 +7°C° 0.8 mm 9 mps 760 mmHg 93%
    09:00 +7°C° 0.8 mm 11 mps 760 mmHg 89%
    10:00 +7°C° 0.8 mm 12 mps 760 mmHg 84%
    11:00 +8°C° 0 mm 13 mps 759 mmHg 81%
    12:00 +9°C° 0 mm 13 mps 759 mmHg 78%
    13:00 +10°C° 0 mm 14 mps 758 mmHg 74%
    14:00 +10°C° 0 mm 14 mps 758 mmHg 79%
    15:00 +9°C° 0 mm 13 mps 758 mmHg 84%
    16:00 +9°C° 0 mm 13 mps 757 mmHg 89%
    17:00 +8°C° 0.1 mm 12 mps 758 mmHg 90%
    18:00 +8°C° 0.1 mm 10 mps 758 mmHg 92%
    19:00 +7°C° 0.1 mm 9 mps 759 mmHg 93%
    20:00 +7°C° 0.1 mm 8 mps 759 mmHg 93%
    21:00 +8°C° 0.1 mm 7 mps 759 mmHg 94%
    22:00 +8°C° 0.1 mm 5 mps 759 mmHg 94%
    23:00 +8°C° 0.1 mm 6 mps 759 mmHg 94%

    28 May, Monday

    Time Temperature Precipitation Wind Pressure Humidity
    00:00 +8°C° 0.1 mm 6 mps 759 mmHg 93%
    01:00 +8°C° 0.1 mm 6 mps 759 mmHg 93%
    02:00 +8°C° 0.1 mm 7 mps 758 mmHg 93%
    03:00 +7°C° 0.1 mm 8 mps 758 mmHg 92%
    04:00 +7°C° 0.1 mm 10 mps 758 mmHg 92%
    05:00 +8°C° 0 mm 10 mps 757 mmHg 91%
    06:00 +8°C° 0 mm 11 mps 757 mmHg 90%
    07:00 +9°C° 0 mm 12 mps 757 mmHg 89%
    08:00 +9°C° 0.1 mm 12 mps 757 mmHg 86%
    09:00 +10°C° 0.1 mm 13 mps 756 mmHg 84%
    10:00 +10°C° 0.1 mm 13 mps 756 mmHg 81%
    11:00 +12°C° 0 mm 13 mps 755 mmHg 79%
    12:00 +12°C° 0 mm 13 mps 755 mmHg 76%
    13:00 +13°C° 0 mm 14 mps 755 mmHg 74%
    14:00 +12°C° 0 mm 14 mps 754 mmHg 74%
    15:00 +12°C° 0 mm 14 mps 754 mmHg 74%
    16:00 +12°C° 0 mm 14 mps 754 mmHg 74%
    17:00 +10°C° 0 mm 14 mps 754 mmHg 78%
    18:00 +10°C° 0 mm 14 mps 754 mmHg 82%
    19:00 +9°C° 0 mm 13 mps 754 mmHg 86%
    20:00 +8°C° 0.1 mm 13 mps 754 mmHg 88%
    21:00 +8°C° 0.1 mm 12 mps 754 mmHg 90%
    22:00 +8°C° 0.1 mm 12 mps 754 mmHg 92%
    23:00 +7°C° 0.3 mm 11 mps 755 mmHg 93%
    Show more